Time,TemperatureF,DewpointF,PressureIn,WindDirection,WindDirectionDegrees,WindSpeedMPH,WindSpeedGustMPH,Humidity,HourlyPrecipIn,Conditions,Clouds,dailyrainin,SoftwareType,DateUTC
2013-05-05 00:02:00,54.0,51.0,30.00,North,355,0.0,2.0,91,0.00,,,0.00,,2013-05-05 04:02:00,
2013-05-05 00:12:00,54.0,51.0,30.00,North,355,0.0,2.0,91,0.00,,,0.00,,2013-05-05 04:12:00,
2013-05-05 00:23:00,53.0,50.0,30.00,North,355,0.0,1.0,91,0.00,,,0.00,,2013-05-05 04:23:00,
2013-05-05 00:32:00,53.0,51.0,30.01,North,355,0.0,0.0,92,0.00,,,0.00,,2013-05-05 04:32:00,
2013-05-05 00:43:00,53.0,51.0,30.01,North,355,0.0,0.0,92,0.00,,,0.00,,2013-05-05 04:43:00,
2013-05-05 00:53:00,53.0,51.0,30.02,North,355,0.0,0.0,92,0.00,,,0.00,,2013-05-05 04:53:00,
2013-05-05 01:02:00,52.0,50.0,30.02,North,355,0.0,0.0,92,0.00,,,0.00,,2013-05-05 05:02:00,
2013-05-05 01:12:00,52.0,50.0,30.02,North,355,0.0,0.0,92,0.00,,,0.00,,2013-05-05 05:12:00,
2013-05-05 01:21:00,51.0,48.0,30.01,North,355,0.0,0.0,91,0.00,,,0.00,,2013-05-05 05:21:00,
2013-05-05 01:31:00,50.0,48.0,30.01,North,355,0.0,0.0,94,0.00,,,0.00,,2013-05-05 05:31:00,
2013-05-05 01:42:00,50.0,48.0,30.01,North,355,0.0,0.0,94,0.00,,,0.00,,2013-05-05 05:42:00,
2013-05-05 01:52:00,50.0,48.0,30.00,North,355,0.0,0.0,94,0.00,,,0.00,,2013-05-05 05:52:00,
2013-05-05 02:01:00,51.0,50.0,30.00,NW,321,1.0,3.0,96,0.00,,,0.00,,2013-05-05 06:01:00,
2013-05-05 02:12:00,51.0,50.0,30.00,NW,321,1.0,3.0,96,0.00,,,0.00,,2013-05-05 06:12:00,
2013-05-05 02:21:00,52.0,51.0,29.99,NW,321,0.0,0.0,95,0.00,,,0.00,,2013-05-05 06:21:00,
2013-05-05 02:32:00,52.0,51.0,29.99,NW,321,0.0,0.0,95,0.00,,,0.00,,2013-05-05 06:32:00,
2013-05-05 02:42:00,52.0,51.0,29.99,NW,321,0.0,0.0,95,0.00,,,0.00,,2013-05-05 06:42:00,
2013-05-05 02:52:00,52.0,51.0,29.98,NW,321,0.0,0.0,95,0.00,,,0.00,,2013-05-05 06:52:00,
2013-05-05 03:01:00,52.0,51.0,29.98,NW,321,0.0,1.0,95,0.00,,,0.00,,2013-05-05 07:01:00,
2013-05-05 03:11:00,52.0,51.0,29.98,NW,321,0.0,1.0,95,0.00,,,0.00,,2013-05-05 07:11:00,
2013-05-05 03:21:00,52.0,51.0,29.98,NW,321,0.0,0.0,95,0.00,,,0.00,,2013-05-05 07:21:00,
2013-05-05 03:32:00,53.0,52.0,29.98,WNW,298,0.0,0.0,95,0.00,,,0.00,,2013-05-05 07:32:00,
2013-05-05 03:42:00,53.0,52.0,29.98,WNW,298,0.0,0.0,95,0.00,,,0.00,,2013-05-05 07:42:00,
2013-05-05 03:52:00,53.0,52.0,29.98,West,271,0.0,1.0,95,0.00,,,0.00,,2013-05-05 07:52:00,
2013-05-05 04:02:00,54.0,52.0,29.98,South,184,1.0,4.0,94,0.00,,,0.00,,2013-05-05 08:02:00,
2013-05-05 04:11:00,54.0,52.0,29.98,South,184,1.0,4.0,94,0.00,,,0.00,,2013-05-05 08:11:00,
2013-05-05 04:21:00,54.0,52.0,29.98,SW,229,1.0,4.0,94,0.00,,,0.00,,2013-05-05 08:21:00,
2013-05-05 04:31:00,54.0,52.0,29.96,West,273,0.0,3.0,94,0.00,,,0.00,,2013-05-05 08:31:00,
2013-05-05 04:42:00,54.0,52.0,29.96,West,273,0.0,3.0,94,0.00,,,0.00,,2013-05-05 08:42:00,
2013-05-05 04:53:00,53.0,51.0,29.96,West,274,0.0,2.0,94,0.00,,,0.00,,2013-05-05 08:53:00,
2013-05-05 05:01:00,53.0,51.0,29.97,West,274,0.0,1.0,94,0.00,,,0.00,,2013-05-05 09:01:00,
2013-05-05 05:11:00,53.0,51.0,29.97,West,274,0.0,1.0,94,0.00,,,0.00,,2013-05-05 09:11:00,
2013-05-05 05:21:00,53.0,52.0,29.97,WNW,296,0.0,2.0,95,0.00,,,0.00,,2013-05-05 09:21:00,
2013-05-05 05:32:00,53.0,52.0,29.96,NW,313,1.0,3.0,95,0.00,,,0.00,,2013-05-05 09:32:00,
2013-05-05 05:42:00,53.0,52.0,29.96,NW,313,1.0,3.0,95,0.00,,,0.00,,2013-05-05 09:42:00,
2013-05-05 05:52:00,53.0,52.0,29.96,NW,312,0.0,2.0,95,0.00,,,0.00,,2013-05-05 09:52:00,
2013-05-05 06:02:00,52.0,51.0,29.95,NW,312,2.0,3.0,95,0.00,,,0.00,,2013-05-05 10:02:00,
2013-05-05 06:12:00,52.0,51.0,29.95,NW,312,2.0,3.0,95,0.00,,,0.00,,2013-05-05 10:12:00,
2013-05-05 06:22:00,52.0,51.0,29.96,NW,311,0.0,2.0,95,0.00,,,0.00,,2013-05-05 10:22:00,
2013-05-05 06:32:00,52.0,51.0,29.96,NW,311,0.0,0.0,95,0.00,,,0.00,,2013-05-05 10:32:00,
2013-05-05 06:42:00,52.0,51.0,29.96,NW,311,0.0,0.0,95,0.00,,,0.00,,2013-05-05 10:42:00,
2013-05-05 06:53:00,52.0,51.0,29.96,NW,311,0.0,0.0,96,0.00,,,0.00,,2013-05-05 10:53:00,
2013-05-05 07:01:00,52.0,51.0,29.96,NW,323,1.0,3.0,95,0.00,,,0.00,,2013-05-05 11:01:00,
2013-05-05 07:12:00,52.0,51.0,29.96,NW,323,1.0,3.0,95,0.00,,,0.00,,2013-05-05 11:12:00,
2013-05-05 07:22:00,52.0,51.0,29.96,NW,325,1.0,3.0,96,0.00,,,0.00,,2013-05-05 11:22:00,
2013-05-05 07:32:00,52.0,51.0,29.96,NNW,342,0.0,3.0,96,0.00,,,0.00,,2013-05-05 11:32:00,
2013-05-05 07:42:00,52.0,51.0,29.96,NNW,342,0.0,3.0,96,0.00,,,0.00,,2013-05-05 11:42:00,
2013-05-05 07:52:00,53.0,52.0,29.96,North,5,0.0,3.0,96,0.00,,,0.00,,2013-05-05 11:52:00,
2013-05-05 08:02:00,53.0,52.0,29.95,NNE,28,2.0,3.0,96,0.00,,,0.00,,2013-05-05 12:02:00,
2013-05-05 08:11:00,53.0,52.0,29.95,NNE,28,2.0,3.0,96,0.00,,,0.00,,2013-05-05 12:11:00,
2013-05-05 08:21:00,53.0,52.0,29.96,NNE,28,2.0,3.0,96,0.00,,,0.00,,2013-05-05 12:21:00,
2013-05-05 08:32:00,54.0,53.0,29.96,NE,35,1.0,4.0,95,0.00,,,0.00,,2013-05-05 12:32:00,
2013-05-05 08:42:00,54.0,53.0,29.96,NE,35,1.0,4.0,95,0.00,,,0.00,,2013-05-05 12:42:00,
2013-05-05 08:52:00,55.0,52.0,29.96,NE,41,2.0,4.0,91,0.00,,,0.00,,2013-05-05 12:52:00,
2013-05-05 09:01:00,55.0,52.0,29.96,NE,41,2.0,6.0,88,0.00,,,0.00,,2013-05-05 13:01:00,
2013-05-05 09:11:00,55.0,52.0,29.96,NE,41,2.0,6.0,88,0.00,,,0.00,,2013-05-05 13:11:00,
2013-05-05 09:21:00,55.0,52.0,29.97,ENE,58,1.0,5.0,89,0.00,,,0.00,,2013-05-05 13:21:00,
2013-05-05 09:32:00,56.0,52.0,29.96,NE,42,3.0,5.0,87,0.00,,,0.00,,2013-05-05 13:32:00,
2013-05-05 09:42:00,56.0,52.0,29.96,NE,42,3.0,5.0,87,0.00,,,0.00,,2013-05-05 13:42:00,
2013-05-05 09:52:00,57.0,53.0,29.97,East,82,2.0,9.0,86,0.00,,,0.00,,2013-05-05 13:52:00,
2013-05-05 10:02:00,58.0,53.0,29.97,ENE,67,3.0,7.0,82,0.00,,,0.00,,2013-05-05 14:02:00,
2013-05-05 10:11:00,58.0,53.0,29.97,ENE,67,3.0,7.0,82,0.00,,,0.00,,2013-05-05 14:11:00,
2013-05-05 10:21:00,60.0,52.0,29.97,East,89,4.0,9.0,75,0.00,,,0.00,,2013-05-05 14:21:00,
2013-05-05 10:31:00,60.0,52.0,29.97,ENE,70,2.0,8.0,74,0.00,,,0.00,,2013-05-05 14:31:00,
2013-05-05 10:42:00,60.0,52.0,29.97,ENE,70,2.0,8.0,74,0.00,,,0.00,,2013-05-05 14:42:00,
2013-05-05 10:52:00,62.0,53.0,29.97,ENE,59,3.0,8.0,73,0.00,,,0.00,,2013-05-05 14:52:00,
2013-05-05 11:02:00,63.0,53.0,29.97,ENE,72,2.0,7.0,71,0.00,,,0.00,,2013-05-05 15:02:00,
2013-05-05 11:11:00,63.0,53.0,29.97,ENE,72,2.0,7.0,71,0.00,,,0.00,,2013-05-05 15:11:00,
2013-05-05 11:21:00,65.0,54.0,29.96,ENE,62,2.0,8.0,68,0.00,,,0.00,,2013-05-05 15:21:00,
2013-05-05 11:33:00,65.0,52.0,29.96,ENE,59,4.0,9.0,63,0.00,,,0.00,,2013-05-05 15:33:00,
2013-05-05 11:43:00,65.0,52.0,29.96,ENE,59,4.0,9.0,63,0.00,,,0.00,,2013-05-05 15:43:00,
2013-05-05 11:53:00,66.0,53.0,29.96,SE,126,3.0,9.0,63,0.00,,,0.00,,2013-05-05 15:53:00,
2013-05-05 12:03:00,66.0,53.0,29.96,ESE,103,5.0,8.0,62,0.00,,,0.00,,2013-05-05 16:03:00,
2013-05-05 12:12:00,66.0,53.0,29.96,ESE,103,5.0,8.0,62,0.00,,,0.00,,2013-05-05 16:12:00,
2013-05-05 12:23:00,66.0,53.0,29.96,ENE,72,1.0,8.0,62,0.00,,,0.00,,2013-05-05 16:23:00,
2013-05-05 12:32:00,65.0,52.0,29.96,NE,54,5.0,9.0,62,0.00,,,0.00,,2013-05-05 16:32:00,
2013-05-05 12:42:00,65.0,52.0,29.96,NE,54,5.0,9.0,62,0.00,,,0.00,,2013-05-05 16:42:00,
2013-05-05 12:53:00,66.0,52.0,29.96,ESE,118,4.0,8.0,61,0.00,,,0.00,,2013-05-05 16:53:00,
2013-05-05 13:02:00,66.0,52.0,29.96,East,101,3.0,8.0,61,0.00,,,0.00,,2013-05-05 17:02:00,
2013-05-05 13:12:00,66.0,52.0,29.96,East,101,3.0,8.0,61,0.00,,,0.00,,2013-05-05 17:12:00,
2013-05-05 13:23:00,66.0,50.0,29.96,ENE,58,5.0,11.0,56,0.00,,,0.00,,2013-05-05 17:23:00,
2013-05-05 13:32:00,66.0,50.0,29.96,East,83,5.0,10.0,57,0.00,,,0.00,,2013-05-05 17:32:00,
2013-05-05 13:42:00,66.0,50.0,29.96,East,83,5.0,10.0,57,0.00,,,0.00,,2013-05-05 17:42:00,
2013-05-05 13:52:00,66.0,50.0,29.95,ESE,107,4.0,13.0,57,0.00,,,0.00,,2013-05-05 17:52:00,
2013-05-05 14:01:00,66.0,50.0,29.95,East,82,5.0,10.0,56,0.00,,,0.00,,2013-05-05 18:01:00,
2013-05-05 14:12:00,66.0,50.0,29.95,East,82,5.0,10.0,56,0.00,,,0.00,,2013-05-05 18:12:00,
2013-05-05 14:21:00,66.0,50.0,29.96,East,92,8.0,12.0,56,0.00,,,0.00,,2013-05-05 18:21:00,
2013-05-05 14:32:00,66.0,50.0,29.96,East,93,4.0,13.0,57,0.00,,,0.00,,2013-05-05 18:32:00,
2013-05-05 14:42:00,66.0,50.0,29.96,East,93,4.0,13.0,57,0.00,,,0.00,,2013-05-05 18:42:00,
2013-05-05 14:52:00,66.0,48.0,29.96,East,89,7.0,14.0,53,0.00,,,0.00,,2013-05-05 18:52:00,
2013-05-05 15:01:00,66.0,50.0,29.95,ENE,74,5.0,12.0,56,0.00,,,0.00,,2013-05-05 19:01:00,
2013-05-05 15:11:00,66.0,50.0,29.95,ENE,74,5.0,12.0,56,0.00,,,0.00,,2013-05-05 19:11:00,
2013-05-05 15:21:00,66.0,49.0,29.95,East,86,6.0,11.0,54,0.00,,,0.00,,2013-05-05 19:21:00,
2013-05-05 15:32:00,66.0,49.0,29.95,SE,130,7.0,13.0,54,0.00,,,0.00,,2013-05-05 19:32:00,
2013-05-05 15:42:00,66.0,49.0,29.95,SE,130,7.0,13.0,54,0.00,,,0.00,,2013-05-05 19:42:00,
2013-05-05 15:52:00,65.0,50.0,29.95,ENE,78,6.0,12.0,58,0.00,,,0.00,,2013-05-05 19:52:00,
2013-05-05 16:01:00,64.0,52.0,29.95,East,88,3.0,12.0,64,0.00,,,0.00,,2013-05-05 20:01:00,
2013-05-05 16:11:00,64.0,52.0,29.95,East,88,3.0,12.0,64,0.00,,,0.00,,2013-05-05 20:11:00,
2013-05-05 16:21:00,63.0,52.0,29.95,ESE,119,3.0,6.0,67,0.00,,,0.00,,2013-05-05 20:21:00,
2013-05-05 16:31:00,63.0,53.0,29.95,East,98,2.0,10.0,69,0.00,,,0.00,,2013-05-05 20:31:00,
2013-05-05 16:41:00,63.0,53.0,29.95,East,98,2.0,10.0,69,0.00,,,0.00,,2013-05-05 20:41:00,
2013-05-05 16:52:00,63.0,51.0,29.94,ESE,107,5.0,9.0,66,0.00,,,0.00,,2013-05-05 20:52:00,
2013-05-05 17:02:00,64.0,52.0,29.94,ENE,68,3.0,9.0,64,0.00,,,0.00,,2013-05-05 21:02:00,
2013-05-05 17:11:00,64.0,52.0,29.94,ENE,68,3.0,9.0,64,0.00,,,0.00,,2013-05-05 21:11:00,
2013-05-05 17:21:00,65.0,52.0,29.94,NE,56,5.0,10.0,62,0.00,,,0.00,,2013-05-05 21:21:00,
2013-05-05 17:33:00,65.0,51.0,29.94,East,84,5.0,11.0,60,0.00,,,0.00,,2013-05-05 21:33:00,
2013-05-05 17:42:00,65.0,51.0,29.94,East,84,5.0,11.0,60,0.00,,,0.00,,2013-05-05 21:42:00,
2013-05-05 17:53:00,64.0,50.0,29.94,East,86,5.0,14.0,60,0.00,,,0.00,,2013-05-05 21:53:00,
2013-05-05 18:02:00,64.0,49.0,29.94,SE,142,4.0,12.0,59,0.00,,,0.00,,2013-05-05 22:02:00,
2013-05-05 18:12:00,64.0,49.0,29.94,SE,142,4.0,12.0,59,0.00,,,0.00,,2013-05-05 22:12:00,
2013-05-05 18:22:00,64.0,49.0,29.94,ESE,102,5.0,12.0,58,0.00,,,0.00,,2013-05-05 22:22:00,
2013-05-05 18:33:00,64.0,50.0,29.93,ENE,74,6.0,10.0,61,0.00,,,0.00,,2013-05-05 22:33:00,
2013-05-05 18:42:00,64.0,50.0,29.93,ENE,74,6.0,10.0,61,0.00,,,0.00,,2013-05-05 22:42:00,
2013-05-05 18:52:00,62.0,50.0,29.94,SE,133,4.0,11.0,65,0.00,,,0.00,,2013-05-05 22:52:00,
2013-05-05 19:02:00,62.0,51.0,29.94,ESE,118,3.0,14.0,66,0.00,,,0.00,,2013-05-05 23:02:00,
2013-05-05 19:11:00,62.0,51.0,29.94,ESE,118,3.0,14.0,66,0.00,,,0.00,,2013-05-05 23:11:00,
2013-05-05 19:21:00,62.0,51.0,29.95,ENE,74,4.0,8.0,67,0.00,,,0.00,,2013-05-05 23:21:00,
2013-05-05 19:32:00,62.0,51.0,29.95,East,99,4.0,16.0,68,0.00,,,0.00,,2013-05-05 23:32:00,
2013-05-05 19:42:00,62.0,51.0,29.95,East,99,4.0,16.0,68,0.00,,,0.00,,2013-05-05 23:42:00,
2013-05-05 19:52:00,61.0,51.0,29.95,SE,131,4.0,13.0,70,0.00,,,0.00,,2013-05-05 23:52:00,
2013-05-05 20:01:00,61.0,52.0,29.96,East,79,3.0,10.0,71,0.00,,,0.00,,2013-05-06 00:01:00,
2013-05-05 20:11:00,61.0,52.0,29.96,East,79,3.0,10.0,71,0.00,,,0.00,,2013-05-06 00:11:00,
2013-05-05 20:21:00,60.0,51.0,29.96,SE,132,5.0,10.0,72,0.00,,,0.00,,2013-05-06 00:21:00,
2013-05-05 20:31:00,59.0,51.0,29.97,SSE,150,3.0,10.0,74,0.00,,,0.00,,2013-05-06 00:31:00,
2013-05-05 20:41:00,59.0,51.0,29.97,SSE,150,3.0,10.0,74,0.00,,,0.00,,2013-05-06 00:41:00,
2013-05-05 20:52:00,59.0,51.0,29.97,ESE,123,4.0,7.0,75,0.00,,,0.00,,2013-05-06 00:52:00,
2013-05-05 21:01:00,59.0,51.0,29.98,SE,138,4.0,7.0,74,0.00,,,0.00,,2013-05-06 01:01:00,
2013-05-05 21:11:00,59.0,51.0,29.98,SE,138,4.0,7.0,74,0.00,,,0.00,,2013-05-06 01:11:00,
2013-05-05 21:21:00,58.0,49.0,29.98,SE,132,3.0,6.0,73,0.00,,,0.00,,2013-05-06 01:21:00,
2013-05-05 21:31:00,58.0,50.0,29.98,East,83,2.0,4.0,74,0.00,,,0.00,,2013-05-06 01:31:00,
2013-05-05 21:41:00,58.0,50.0,29.98,East,83,2.0,4.0,74,0.00,,,0.00,,2013-05-06 01:41:00,
2013-05-05 21:52:00,58.0,50.0,29.98,East,83,1.0,4.0,74,0.00,,,0.00,,2013-05-06 01:52:00,
2013-05-05 22:01:00,58.0,50.0,29.99,East,88,0.0,4.0,75,0.00,,,0.00,,2013-05-06 02:01:00,
2013-05-05 22:12:00,58.0,50.0,29.99,East,88,0.0,4.0,75,0.00,,,0.00,,2013-05-06 02:12:00,
2013-05-05 22:21:00,58.0,50.0,29.99,ENE,78,0.0,3.0,74,0.00,,,0.00,,2013-05-06 02:21:00,
2013-05-05 22:32:00,58.0,50.0,29.99,ENE,72,0.0,0.0,74,0.00,,,0.00,,2013-05-06 02:32:00,
2013-05-05 22:42:00,58.0,50.0,29.99,ENE,72,0.0,0.0,74,0.00,,,0.00,,2013-05-06 02:42:00,
2013-05-05 22:52:00,57.0,50.0,29.99,ENE,72,0.0,0.0,77,0.00,,,0.00,,2013-05-06 02:52:00,
2013-05-05 23:02:00,57.0,51.0,29.98,ENE,59,1.0,2.0,80,0.00,,,0.00,,2013-05-06 03:02:00,
2013-05-05 23:11:00,57.0,51.0,29.98,ENE,59,1.0,2.0,80,0.00,,,0.00,,2013-05-06 03:11:00,
2013-05-05 23:22:00,56.0,51.0,29.98,ENE,59,0.0,1.0,82,0.00,,,0.00,,2013-05-06 03:22:00,
2013-05-05 23:33:00,56.0,50.0,29.98,ENE,59,0.0,0.0,81,0.00,,,0.00,,2013-05-06 03:33:00,
2013-05-05 23:42:00,56.0,50.0,29.98,ENE,59,0.0,0.0,81,0.00,,,0.00,,2013-05-06 03:42:00,
2013-05-05 23:52:00,56.0,51.0,29.98,ENE,59,0.0,0.0,83,0.00,,,0.00,,2013-05-06 03:52:00,